Location: Sternwarte Stuttgart
(48.7824°N, 9.1965°E)
Time: 12:48:11
(UTC+00:00)

ISS - Pass Details

Date: 22 April 2025
Orbit: 416 x 420 km, 51.6° (Epoch: 15 May)

Event Time Altitude Azimuth Distance (km) Brightness Sun altitude
Exits shadow 02:29:19 11° 158° (SSE) 1,404 -1.3 -16.3°
Maximum altitude 02:30:30 13° 136° (SE) 1,312 -1.2 -16.1°
Drops below altitude 10° 02:32:10 10° 106° (ESE) 1,493 -0.5 -15.9°
Sets 02:35:06 0° 78° (ENE) 2,362 1.2 -15.6°
